START_TIME,STEP,MOV.,M15,t_acc.,M20,t_acc.
1979-08-02 03:00:42.740 ,1,0,0.,24.0,0.,24.0
1979-08-02 03:01:06.740 ,2,1,0.,24.0,0.,24.0
1979-08-02 03:01:30.740 ,2,0,0.,24.0,0.,24.0
1979-08-02 03:01:54.740 ,3,1,0.,24.0,0.,24.0
1979-08-02 03:02:18.740 ,3,0,0.,24.0,0.,24.0
1979-08-02 03:02:42.740 ,4,1,0.,24.0,0.,24.0
1979-08-02 03:03:06.740 ,4,0,0.,24.0,0.,24.0
1979-08-02 03:03:30.740 ,5,1,0.,24.0,0.,24.0
1979-08-02 03:03:54.740 ,5,0,0.,24.0,0.,24.0
1979-08-02 03:04:18.740 ,6,1,0.,24.0,0.,24.0
1979-08-02 03:04:42.740 ,6,0,0.,24.0,0.,24.0
1979-08-02 03:05:06.740 ,7,1,0.,24.0,0.,24.0
1979-08-02 03:05:30.740 ,7,0,0.,24.0,0.,24.0
1979-08-02 03:05:54.740 ,7,1,0.,24.0,0.,24.0
1979-08-02 03:06:18.740 ,7,0,0.,24.0,0.,24.0
1979-08-02 03:06:42.740 ,6,1,0.,24.0,0.,24.0
1979-08-02 03:07:06.740 ,6,0,0.,24.0,0.,24.0
1979-08-02 03:07:30.740 ,0,0,,0,,0
1979-08-02 03:07:54.740 ,0,0,,0,,0
1979-08-02 03:07:54.740 ,5,0,0.,24.0,0.,24.0
1979-08-02 03:08:18.740 ,4,1,0.,24.0,0.,24.0
1979-08-02 03:08:42.740 ,4,0,0.,24.0,0.,24.0
1979-08-02 03:09:06.740 ,3,1,0.,24.0,0.,24.0
1979-08-02 03:09:30.740 ,3,0,0.,24.0,0.,24.0
1979-08-02 03:09:54.740 ,2,1,0.,24.0,0.,24.0
1979-08-02 03:10:18.740 ,2,0,0.,24.0,0.,24.0
1979-08-02 03:10:42.740 ,1,1,0.,24.0,0.,24.0
1979-08-02 03:11:06.740 ,1,0,0.,24.0,0.,24.0
1979-08-02 03:11:30.740 ,0,1,0.,24.0,0.,24.0
1979-08-02 03:11:54.740 ,0,0,0.,24.0,0.,24.0
1979-08-02 03:12:18.740 ,0,1,0.,24.0,0.,24.0
1979-08-02 03:12:42.740 ,0,0,0.,24.0,0.,24.0
1979-08-02 03:13:06.740 ,1,1,0.,24.0,0.,24.0
1979-08-02 03:13:30.740 ,1,0,0.,24.0,0.,24.0
1979-08-02 03:13:54.740 ,2,1,0.,24.0,0.,24.0
1979-08-02 03:14:18.740 ,2,0,0.,24.0,0.,24.0
1979-08-02 03:14:42.740 ,3,1,0.,24.0,0.,24.0
1979-08-02 03:15:06.740 ,3,0,0.,24.0,0.,24.0
1979-08-02 03:15:30.740 ,4,1,0.,24.0,0.,24.0
1979-08-02 03:15:54.740 ,4,0,0.,24.0,0.,24.0
1979-08-02 03:16:18.740 ,5,1,0.,24.0,0.,24.0
1979-08-02 03:16:42.740 ,5,0,0.,24.0,0.,24.0
1979-08-02 03:17:06.740 ,6,1,0.,24.0,0.,24.0
1979-08-02 03:17:30.740 ,6,0,0.,24.0,0.,24.0
1979-08-02 03:17:54.740 ,7,1,0.,24.0,0.,24.0
1979-08-02 03:18:18.740 ,7,0,0.,24.0,0.,24.0
1979-08-02 03:18:42.740 ,7,1,0.,24.0,0.,24.0
1979-08-02 03:19:06.740 ,7,0,0.,24.0,0.,24.0
1979-08-02 03:19:30.740 ,6,1,0.,24.0,0.,24.0
1979-08-02 03:19:54.740 ,6,0,0.,24.0,0.,24.0
1979-08-02 03:20:18.740 ,5,1,0.,24.0,0.,24.0
1979-08-02 03:20:42.740 ,5,0,0.,24.0,0.,24.0
1979-08-02 03:21:06.740 ,4,1,0.,24.0,0.,24.0
1979-08-02 03:21:30.740 ,4,0,0.,24.0,0.,24.0
1979-08-02 03:21:54.740 ,3,1,0.,24.0,0.,24.0
1979-08-02 03:22:18.740 ,3,0,0.,24.0,0.,24.0
1979-08-02 03:22:42.740 ,2,1,0.,24.0,0.,24.0
1979-08-02 03:23:06.740 ,2,0,0.,24.0,0.,24.0
1979-08-02 03:23:30.740 ,1,1,0.,24.0,0.,24.0
1979-08-02 03:23:54.740 ,1,0,0.,24.0,0.,24.0
1979-08-02 03:24:18.740 ,0,1,0.,24.0,0.,24.0
1979-08-02 03:24:42.740 ,0,0,0.,24.0,0.,24.0
1979-08-02 03:25:06.740 ,0,1,0.,24.0,0.,24.0
1979-08-02 03:25:30.740 ,0,0,0.,24.0,0.,24.0
1979-08-02 03:25:54.740 ,1,1,0.,24.0,0.,24.0
1979-08-02 03:26:18.740 ,1,0,0.,24.0,0.,24.0
1979-08-02 03:26:42.740 ,2,1,0.,24.0,0.,24.0
1979-08-02 03:27:06.740 ,2,0,0.,24.0,0.,24.0
1979-08-02 03:27:30.740 ,3,1,0.,24.0,0.,24.0
1979-08-02 03:27:54.740 ,3,0,0.,24.0,0.,24.0
1979-08-02 03:28:18.740 ,4,1,0.,24.0,0.,24.0
1979-08-02 03:28:42.740 ,4,0,0.,24.0,0.,24.0
1979-08-02 03:29:06.740 ,5,1,0.,24.0,0.,24.0
1979-08-02 03:29:30.740 ,5,0,0.,24.0,0.,24.0
1979-08-02 03:29:54.740 ,6,1,0.,24.0,0.,24.0
1979-08-02 03:30:18.740 ,6,0,0.,24.0,0.,24.0
1979-08-02 03:30:42.740 ,7,0,0.,24.0,0.,24.0
1979-08-02 03:31:06.740 ,7,0,0.,24.0,0.,24.0
1979-08-02 03:31:30.740 ,3,1,0.,24.0,0.,24.0
1979-08-02 03:31:54.740 ,0,1,0.,24.0,0.,24.0
1979-08-02 03:32:18.740 ,4,1,0.,24.0,0.,24.0
1979-08-02 03:32:42.740 ,7,1,0.,24.0,0.,24.0
1979-08-02 03:33:06.740 ,3,1,0.,24.0,0.,24.0
1979-08-02 03:33:30.740 ,0,1,0.,24.0,0.,24.0
1979-08-02 03:33:54.740 ,4,1,0.,24.0,0.,24.0
1979-08-02 03:34:18.740 ,7,1,0.,24.0,0.,24.0
1979-08-02 03:34:42.740 ,3,1,0.,24.0,0.,24.0
1979-08-02 03:35:06.740 ,0,1,0.,24.0,0.,24.0
1979-08-02 03:35:30.740 ,4,1,0.,24.0,0.,24.0
1979-08-02 03:35:54.740 ,7,1,0.,24.0,0.,24.0
1979-08-02 03:36:18.740 ,3,1,0.,24.0,0.,24.0
1979-08-02 03:36:42.740 ,0,1,0.,24.0,0.,24.0
1979-08-02 03:37:06.740 ,4,1,0.,24.0,0.,24.0
1979-08-02 03:37:30.740 ,7,1,0.,24.0,0.,24.0
1979-08-02 03:37:54.740 ,3,1,0.,24.0,0.,24.0
1979-08-02 03:38:18.740 ,0,1,0.,24.0,0.,24.0
1979-08-02 03:38:42.740 ,4,1,0.,24.0,0.,24.0
1979-08-02 03:39:06.740 ,7,1,0.,24.0,0.,24.0
1979-08-02 03:39:30.740 ,3,1,0.,24.0,0.,24.0
1979-08-02 03:39:54.740 ,0,1,0.,24.0,0.,24.0
1979-08-02 03:40:18.740 ,4,1,0.,24.0,0.,24.0
1979-08-02 03:40:42.740 ,7,1,0.,24.0,0.,24.0
1979-08-02 03:41:06.740 ,3,1,0.,24.0,0.,24.0
1979-08-02 03:41:30.740 ,0,1,0.,24.0,0.,24.0
1979-08-02 03:41:54.740 ,0,0,0.,24.0,0.,24.0
1979-08-02 03:42:18.740 ,0,0,0.,24.0,0.,24.0
1979-08-02 03:42:42.740 ,5,1,0.,24.0,0.,24.0
1979-08-02 03:43:06.740 ,5,0,0.,24.0,0.,24.0
1979-08-02 03:43:30.740 ,4,1,0.,24.0,0.,24.0
1979-08-02 03:43:54.740 ,4,0,0.,24.0,0.,24.0
1979-08-02 03:44:18.740 ,3,1,0.,24.0,0.,24.0
1979-08-02 03:44:42.740 ,3,0,0.,24.0,0.,24.0
1979-08-02 03:45:06.740 ,2,1,0.,24.0,0.,24.0
1979-08-02 03:45:30.740 ,2,0,0.,24.0,0.,24.0
1979-08-02 03:45:54.740 ,1,1,0.,24.0,0.,24.0
1979-08-02 03:46:18.740 ,1,0,0.,24.0,0.,24.0
1979-08-02 03:46:42.740 ,0,1,0.,24.0,0.,24.0
1979-08-02 03:47:06.740 ,0,0,0.,24.0,0.,24.0
1979-08-02 03:47:30.740 ,0,1,0.,24.0,0.,24.0
1979-08-02 03:47:54.740 ,0,0,0.,24.0,0.,24.0
1979-08-02 03:48:18.740 ,1,1,0.,24.0,0.,24.0
1979-08-02 03:48:42.740 ,1,0,0.,24.0,0.,24.0
1979-08-02 03:49:06.740 ,2,1,0.,24.0,0.,24.0
1979-08-02 03:49:30.740 ,2,0,0.,24.0,0.,24.0
1979-08-02 03:49:54.740 ,3,1,0.,24.0,0.,24.0
1979-08-02 03:50:18.740 ,3,0,0.,24.0,0.,24.0
1979-08-02 03:50:42.740 ,4,1,0.,24.0,0.,24.0
1979-08-02 03:51:06.740 ,4,0,0.,24.0,0.,24.0
1979-08-02 03:51:30.740 ,5,1,0.,24.0,0.,24.0
1979-08-02 03:51:54.740 ,5,0,0.,24.0,0.,24.0
1979-08-02 03:52:18.740 ,6,1,0.,24.0,0.,24.0
1979-08-02 03:52:42.740 ,6,0,0.,24.0,0.,24.0
1979-08-02 03:53:06.740 ,7,1,0.,24.0,0.,24.0
1979-08-02 03:53:30.740 ,7,0,0.,24.0,0.,24.0
1979-08-02 03:53:54.740 ,7,1,0.,24.0,0.,24.0
1979-08-02 03:54:18.740 ,7,0,0.,24.0,0.,24.0
1979-08-02 03:54:42.740 ,6,1,0.,24.0,0.,24.0
1979-08-02 03:55:06.740 ,6,0,0.,24.0,0.,24.0
1979-08-02 03:55:30.740 ,5,1,0.,24.0,0.,24.0
1979-08-02 03:55:54.740 ,5,0,0.,24.0,0.,24.0
1979-08-02 03:56:18.740 ,4,1,0.,24.0,0.,24.0
1979-08-02 03:56:42.740 ,4,0,0.,24.0,0.,24.0
1979-08-02 03:57:06.740 ,3,1,0.,24.0,0.,24.0
1979-08-02 03:57:30.740 ,3,0,0.,24.0,0.,24.0
1979-08-02 03:57:54.740 ,2,1,0.,24.0,0.,24.0
1979-08-02 03:58:18.740 ,2,0,0.,24.0,0.,24.0
1979-08-02 03:58:42.740 ,1,1,0.,24.0,0.,24.0
1979-08-02 03:59:06.740 ,1,0,0.,24.0,0.,24.0
1979-08-02 03:59:30.740 ,0,1,0.,24.0,0.,24.0
1979-08-02 03:59:54.740 ,0,0,0.,24.0,0.,24.0
1979-08-02 04:00:18.740 ,0,1,0.,24.0,0.,24.0
1979-08-02 04:00:42.740 ,0,0,0.,24.0,0.,24.0
1979-08-02 04:01:06.740 ,1,1,0.,24.0,0.,24.0
1979-08-02 04:01:30.740 ,1,0,0.,24.0,0.,24.0
1979-08-02 04:01:54.740 ,2,1,0.,24.0,0.,24.0
1979-08-02 04:02:18.740 ,2,0,0.,24.0,0.,24.0
1979-08-02 04:02:42.740 ,3,1,0.,24.0,0.,24.0
1979-08-02 04:03:06.740 ,3,0,0.,24.0,0.,24.0
1979-08-02 04:03:30.740 ,4,1,0.,24.0,0.,24.0
1979-08-02 04:03:54.740 ,4,0,0.,24.0,0.,24.0
1979-08-02 04:04:18.740 ,5,1,0.,24.0,0.,24.0
1979-08-02 04:04:42.740 ,5,0,0.,24.0,0.,24.0
1979-08-02 04:05:06.740 ,6,1,0.,24.0,0.,24.0
1979-08-02 04:05:30.740 ,6,0,0.,24.0,0.,24.0
1979-08-02 04:05:54.740 ,7,1,0.,24.0,0.,24.0
1979-08-02 04:06:18.740 ,7,0,0.,24.0,0.,24.0
1979-08-02 04:06:42.740 ,7,1,0.,24.0,0.,24.0
1979-08-02 04:07:06.740 ,7,0,0.,24.0,0.,24.0
1979-08-02 04:07:30.740 ,6,1,0.,24.0,0.,24.0
1979-08-02 04:07:54.740 ,6,0,0.,24.0,0.,24.0
1979-08-02 04:08:18.740 ,5,1,0.,24.0,0.,24.0
1979-08-02 04:08:42.740 ,5,0,0.,24.0,0.,24.0
1979-08-02 04:09:06.740 ,4,1,0.,24.0,0.,24.0
1979-08-02 04:09:30.740 ,4,0,0.,24.0,0.,24.0
1979-08-02 04:09:54.740 ,3,1,0.,24.0,0.,24.0
1979-08-02 04:10:18.740 ,0,0,0.,24.0,0.,24.0
1979-08-02 04:10:42.740 ,2,1,0.,24.0,0.,24.0
1979-08-02 04:11:06.740 ,2,0,0.,24.0,0.,24.0
1979-08-02 04:11:30.740 ,1,1,0.,24.0,0.,24.0
1979-08-02 04:11:54.740 ,1,0,0.,24.0,0.,24.0
1979-08-02 04:12:18.740 ,0,1,0.,24.0,0.,24.0
1979-08-02 04:12:42.740 ,0,0,0.,24.0,0.,24.0
1979-08-02 04:13:06.740 ,0,1,0.,24.0,0.,24.0
1979-08-02 04:13:30.740 ,0,0,0.,24.0,0.,24.0
1979-08-02 04:13:54.740 ,1,1,0.,24.0,0.,24.0
1979-08-02 04:14:18.740 ,1,0,0.,24.0,0.,24.0
1979-08-02 04:14:42.740 ,2,1,0.,24.0,0.,24.0
1979-08-02 04:15:06.740 ,2,0,0.,24.0,0.,24.0
1979-08-02 04:15:30.740 ,3,1,0.,24.0,0.,24.0
1979-08-02 04:15:54.740 ,3,0,0.,24.0,0.,24.0
1979-08-02 04:16:18.740 ,4,1,0.,24.0,0.,24.0
1979-08-02 04:16:42.740 ,4,0,0.,24.0,0.,24.0
1979-08-02 04:17:06.740 ,5,1,0.,24.0,0.,24.0
1979-08-02 04:17:30.740 ,5,0,0.,24.0,0.,24.0
1979-08-02 04:17:54.740 ,6,1,0.,24.0,0.,24.0
1979-08-02 04:18:18.740 ,6,0,0.,24.0,0.,24.0
1979-08-02 04:18:42.740 ,7,0,0.,24.0,0.,24.0
1979-08-02 04:19:06.740 ,7,0,0.,24.0,0.,24.0
1979-08-02 04:19:30.740 ,3,1,0.,24.0,0.,24.0
1979-08-02 04:19:54.740 ,0,1,0.,24.0,0.,24.0
1979-08-02 04:20:18.740 ,4,1,0.,24.0,0.,24.0
1979-08-02 04:20:42.740 ,7,1,0.,24.0,0.,24.0
1979-08-02 04:21:06.740 ,3,1,0.,24.0,0.,24.0
1979-08-02 04:21:30.740 ,0,1,0.,24.0,0.,24.0
1979-08-02 04:21:54.740 ,4,1,0.,24.0,0.,24.0
1979-08-02 04:22:18.740 ,7,1,0.,24.0,0.,24.0
1979-08-02 04:22:42.740 ,3,1,0.,24.0,0.,24.0
1979-08-02 04:23:06.740 ,0,1,0.,24.0,0.,24.0
1979-08-02 04:23:30.740 ,4,1,0.,24.0,0.,24.0
1979-08-02 04:23:54.740 ,7,1,0.,24.0,0.,24.0
1979-08-02 04:24:18.740 ,3,1,0.,24.0,0.,24.0
1979-08-02 04:24:42.740 ,0,1,0.,24.0,0.,24.0
1979-08-02 04:25:06.740 ,4,1,0.,24.0,0.,24.0
1979-08-02 04:25:30.740 ,7,1,0.,24.0,0.,24.0
1979-08-02 04:25:54.740 ,0,0,,0,,0
1979-08-02 04:26:18.740 ,0,0,,0,,0
1979-08-02 04:27:02.540 ,0,0,0.,24.0,0.,24.0
1979-08-02 04:27:06.740 ,0,0,,0,,0
1979-08-02 04:27:47.540 ,0,0,0.,24.0,0.,24.0
1979-08-02 04:27:54.740 ,0,1,0.,24.0,0.,24.0
1979-08-02 04:28:18.740 ,4,1,0.,24.0,0.,24.0
1979-08-02 04:28:42.740 ,7,1,0.,24.0,0.,24.0
1979-08-02 04:29:06.740 ,3,1,0.,24.0,0.,24.0
1979-08-02 04:29:30.740 ,0,1,0.,24.0,0.,24.0
1979-08-02 04:29:54.740 ,0,0,0.,24.0,0.,24.0
1979-08-02 04:30:18.740 ,0,0,0.,24.0,0.,24.0
1979-08-02 04:30:42.740 ,5,1,0.,24.0,0.,24.0
1979-08-02 04:31:06.740 ,5,0,0.,24.0,0.,24.0
1979-08-02 04:31:30.740 ,4,1,0.,24.0,0.,24.0
1979-08-02 04:31:54.740 ,4,0,0.,24.0,0.,24.0
1979-08-02 04:32:18.740 ,3,1,0.,24.0,0.,24.0
1979-08-02 04:32:42.740 ,3,0,0.,24.0,0.,24.0
1979-08-02 04:33:06.740 ,2,1,0.,24.0,0.,24.0
1979-08-02 04:33:30.740 ,2,0,0.,24.0,0.,24.0
1979-08-02 04:33:54.740 ,1,1,0.,24.0,0.,24.0
1979-08-02 04:34:18.740 ,1,0,0.,24.0,0.,24.0
1979-08-02 04:34:42.740 ,0,1,0.,24.0,0.,24.0
1979-08-02 04:35:06.740 ,0,0,0.,24.0,0.,24.0
1979-08-02 04:35:30.740 ,0,1,0.,24.0,0.,24.0
1979-08-02 04:35:54.740 ,0,0,0.,24.0,0.,24.0
1979-08-02 04:36:18.740 ,1,1,0.,24.0,0.,24.0
1979-08-02 04:36:42.740 ,1,0,0.,24.0,0.,24.0
1979-08-02 04:37:06.740 ,2,1,0.,24.0,0.,24.0
1979-08-02 04:37:30.740 ,2,0,0.,24.0,0.,24.0
1979-08-02 04:37:54.740 ,3,1,0.,24.0,0.,24.0
1979-08-02 04:38:18.740 ,3,0,0.,24.0,0.,24.0
1979-08-02 04:38:42.740 ,4,1,0.,24.0,0.,24.0
1979-08-02 04:39:06.740 ,4,0,0.,24.0,0.,24.0
1979-08-02 04:39:30.740 ,5,1,0.,24.0,0.,24.0
1979-08-02 04:39:54.740 ,5,0,0.,24.0,0.,24.0
1979-08-02 04:40:18.740 ,6,1,0.,24.0,0.,24.0
1979-08-02 04:40:42.740 ,6,0,0.,24.0,0.,24.0
1979-08-02 04:41:06.740 ,7,1,0.,24.0,0.,24.0
1979-08-02 04:41:30.740 ,7,0,0.,24.0,0.,24.0
1979-08-02 04:41:54.740 ,7,1,0.,24.0,0.,24.0
1979-08-02 04:42:18.740 ,7,0,0.,24.0,0.,24.0
1979-08-02 04:42:42.740 ,6,1,0.,24.0,0.,24.0
1979-08-02 04:43:06.740 ,6,0,0.,24.0,0.,24.0
1979-08-02 04:43:30.740 ,5,1,0.,24.0,0.,24.0
1979-08-02 04:43:54.740 ,5,0,0.,24.0,0.,24.0
1979-08-02 04:44:18.740 ,4,1,0.,24.0,0.,24.0
1979-08-02 04:44:42.740 ,4,0,0.,24.0,0.,24.0
1979-08-02 04:45:06.740 ,3,1,0.,24.0,0.,24.0
1979-08-02 04:45:30.740 ,3,0,0.,24.0,0.,24.0
1979-08-02 04:45:54.740 ,2,1,0.,24.0,0.,24.0
1979-08-02 04:46:18.740 ,2,0,0.,24.0,0.,24.0
1979-08-02 04:46:42.740 ,1,1,0.,24.0,0.,24.0
1979-08-02 05:21:06.740 ,2,1,0.,24.0,0.,24.0
1979-08-02 05:21:30.740 ,2,0,0.,24.0,0.,24.0
1979-08-02 05:21:54.740 ,1,1,0.,24.0,0.,24.0
1979-08-02 05:22:18.740 ,1,0,0.,24.0,0.,24.0
1979-08-02 05:22:42.740 ,0,1,0.,24.0,0.,24.0
1979-08-02 05:23:06.740 ,0,0,0.,24.0,0.,24.0
1979-08-02 05:23:30.740 ,0,1,0.,24.0,0.,24.0
1979-08-02 05:23:54.740 ,0,0,0.,24.0,0.,24.0
1979-08-02 05:24:18.740 ,1,1,0.,24.0,0.,24.0
1979-08-02 05:24:42.740 ,1,0,0.,24.0,0.,24.0
1979-08-02 05:25:06.740 ,2,1,0.,24.0,0.,24.0
1979-08-02 05:25:30.740 ,2,0,0.,24.0,0.,24.0
1979-08-02 05:25:54.740 ,3,1,0.,24.0,0.,24.0
1979-08-02 05:26:18.740 ,3,0,0.,24.0,0.,24.0
1979-08-02 05:26:42.740 ,4,1,0.,24.0,0.,24.0
1979-08-02 05:27:06.740 ,4,0,0.,24.0,0.,24.0
1979-08-02 05:27:30.740 ,5,1,0.,24.0,0.,24.0
1979-08-02 05:27:54.740 ,5,0,0.,24.0,0.,24.0
1979-08-02 05:28:18.740 ,6,1,0.,24.0,0.,24.0
1979-08-02 05:28:42.740 ,6,0,0.,24.0,0.,24.0
1979-08-02 05:29:06.740 ,7,1,0.,24.0,0.,24.0
1979-08-02 05:29:30.740 ,7,0,0.,24.0,0.,24.0
1979-08-02 05:29:54.740 ,7,1,0.,24.0,0.,24.0
1979-08-02 05:30:18.740 ,7,0,0.,24.0,0.,24.0
1979-08-02 05:30:42.740 ,6,1,0.,24.0,0.,24.0
1979-08-02 05:31:06.740 ,6,0,0.,24.0,0.,24.0
1979-08-02 05:31:30.740 ,5,1,0.,24.0,0.,24.0
1979-08-02 05:31:54.740 ,5,0,0.,24.0,0.,24.0
1979-08-02 05:32:18.740 ,4,1,0.,24.0,0.,24.0
1979-08-02 05:32:42.740 ,4,0,0.,24.0,0.,24.0
1979-08-02 05:33:06.740 ,3,1,0.,24.0,0.,24.0
1979-08-02 05:33:30.740 ,3,0,0.,24.0,0.,24.0
1979-08-02 05:33:54.740 ,2,1,0.,24.0,0.,24.0
1979-08-02 05:34:18.740 ,0,0,,0,,0
1979-08-02 05:34:30.140 ,0,0,,0,,0
1979-08-02 05:34:42.740 ,1,1,0.,24.0,0.,24.0
1979-08-02 05:35:06.740 ,1,0,0.,24.0,0.,24.0
1979-08-02 05:35:30.740 ,0,1,0.,24.0,0.,24.0
1979-08-02 05:35:54.740 ,0,0,0.,24.0,0.,24.0
1979-08-02 05:36:18.740 ,0,1,0.,24.0,0.,24.0
1979-08-02 05:36:42.740 ,0,1,0.,24.0,0.,24.0
1979-08-02 05:37:06.740 ,1,1,0.,24.0,0.,24.0
1979-08-02 05:37:30.740 ,1,0,0.,24.0,0.,24.0
1979-08-02 05:37:54.740 ,2,1,0.,24.0,0.,24.0
1979-08-02 05:38:18.740 ,2,0,0.,24.0,0.,24.0
1979-08-02 05:38:42.740 ,3,1,0.,24.0,0.,24.0
1979-08-02 05:39:06.740 ,3,0,0.,24.0,0.,24.0
1979-08-02 05:39:30.740 ,4,1,0.,24.0,0.,24.0
1979-08-02 05:39:54.740 ,4,0,0.,24.0,0.,24.0
1979-08-02 05:40:18.740 ,5,1,0.,24.0,0.,24.0
1979-08-02 05:40:42.740 ,5,0,0.,24.0,0.,24.0
1979-08-02 05:41:06.740 ,0,0,0.,24.0,0.,24.0
1979-08-02 05:41:30.740 ,0,0,,0,,0
1979-08-02 05:41:54.740 ,0,0,,0,,0
1979-08-02 05:42:18.740 ,0,0,,0,,0
1979-08-02 05:42:42.740 ,0,0,0.,24.0,0.,24.0
1979-08-02 05:43:06.740 ,0,0,,0,,0
1979-08-02 05:43:30.730 ,0,0,0.,24.0,0.,24.0
1979-08-02 05:43:54.730 ,0,0,,0,,0
1979-08-02 05:44:18.730 ,0,0,0.,24.0,0.,24.0
1979-08-02 05:44:42.730 ,0,0,0.,24.0,0.,24.0
1979-08-02 05:45:06.730 ,0,0,0.,24.0,0.,24.0
1979-08-02 05:45:30.730 ,0,0,0.,24.0,0.,24.0
1979-08-02 05:45:54.730 ,3,1,0.,24.0,0.,24.0
1979-08-02 05:46:18.730 ,0,0,0.,24.0,0.,24.0
1979-08-02 05:46:43.330 ,0,0,,0,,0
1979-08-02 05:47:06.730 ,0,0,0.,24.0,0.,24.0
1979-08-02 05:47:30.730 ,1,1,0.,24.0,0.,24.0
1979-08-02 05:47:54.730 ,0,0,0.,24.0,0.,24.0
1979-08-02 05:48:19.330 ,0,1,0.,24.0,0.,24.0
1979-08-02 05:48:42.730 ,0,0,,0,,0
1979-08-02 05:49:06.730 ,0,1,0.,24.0,0.,24.0
1979-08-02 05:49:30.730 ,0,1,0.,24.0,0.,24.0
1979-08-02 05:49:54.730 ,1,1,0.,24.0,0.,24.0
1979-08-02 05:50:18.730 ,0,0,0.,24.0,0.,24.0
1979-08-02 05:50:42.730 ,0,0,0.,24.0,0.,24.0
1979-08-02 05:51:06.730 ,0,1,0.,24.0,0.,24.0
1979-08-02 05:51:30.730 ,3,1,0.,24.0,0.,24.0
1979-08-02 05:51:54.730 ,3,0,0.,24.0,0.,24.0
1979-08-02 05:52:18.730 ,4,1,0.,24.0,0.,24.0
1979-08-02 05:52:42.730 ,4,0,0.,24.0,0.,24.0
1979-08-02 05:53:06.730 ,5,1,0.,24.0,0.,24.0
1979-08-02 05:53:30.730 ,5,0,0.,24.0,0.,24.0
1979-08-02 05:53:54.730 ,6,1,0.,24.0,0.,24.0
1979-08-02 05:54:18.730 ,6,0,0.,24.0,0.,24.0
1979-08-02 05:54:42.730 ,7,0,0.,24.0,0.,24.0
1979-08-02 05:55:06.730 ,7,0,0.,24.0,0.,24.0
1979-08-02 05:55:30.730 ,3,1,0.,24.0,0.,24.0
1979-08-02 05:55:54.730 ,0,1,0.,24.0,0.,24.0
1979-08-02 05:56:18.730 ,4,1,0.,24.0,0.,24.0
1979-08-02 05:56:42.730 ,7,1,0.,24.0,0.,24.0
1979-08-02 05:57:06.730 ,3,1,0.,24.0,0.,24.0
1979-08-02 05:57:30.730 ,0,1,0.,24.0,0.,24.0
1979-08-02 05:57:54.730 ,4,1,0.,24.0,0.,24.0
1979-08-02 05:58:18.730 ,7,1,0.,24.0,0.,24.0
1979-08-02 05:58:42.730 ,3,1,0.,24.0,0.,24.0
1979-08-02 05:59:06.730 ,0,1,0.,24.0,0.,24.0
1979-08-02 05:59:30.730 ,4,1,0.,24.0,0.,24.0
1979-08-02 05:59:54.730 ,7,1,0.,24.0,0.,24.0
1979-08-02 06:00:18.730 ,3,1,0.,24.0,0.,24.0
